Content
SEND FEEDBACK

Daily
Averages
Monthly
Summary
United States of America

PATILLAS, PUERTO RICO


Home > North America > United States > Puerto Rico
Elevation: 24 feet     Latitude: 18 02N     Longitude: 066 02W

WEATHER
 
SELECT A DAY
Number of Records: 169,023;   Date Range: 7/1/96 - 7/26/14
 
SHARE

PRINT THIS DATA

[ ← Previous Day ]
WEATHER ALMANAC - JANUARY 3, 2013
[ Next Day → ]
[ °C ]   °F
Weather ElementAverageHighLow
Temperature76.7 °F81 °F (3:56 pm)73 °F (1:56 am)
Dewpoint70.8 °F73.9 °F (11:56 am)66.9 °F (1:56 am)
Humidity82 %94 % (11:26 am)69 % (4:56 pm)
Barometer30.07 in30.12 in (9:56 pm)30.02 in (2:56 am)
Wind Speed6 mph16.1 mph (2:56 pm)
Wind Gust21.9 mph (3:56 pm)
Weather ElementAverage
Visibility9.3 mi
Wind DirectionENE (78 °)

Weather ElementTotal
Precipitation0.19 in
Cooling Degree Days12 (Base 65)
Growing Degree Days27 (Base 50)
Averaged from 25 records on January 3, 2013
WEATHER CONDITIONS BREAKOUT
WIND DIRECTION BREAKOUT
WEATHER BY HOUR - JANUARY 3, 2013
[ °C ]   °F
Local TimeTemperatureDewpointHumidityBarometerVisibilityWind DirectionWind SpeedGust SpeedPrecipitationEventsConditions
1:56 AM73.0 °F66.9 °F81 %30.03 in10.0 miCalmPartly Cloudy
2:56 AM73.0 °F66.9 °F81 %30.02 in10.0 miCalmScattered Clouds
3:56 AM73.0 °F68.0 °F84 %30.02 in10.0 miCalmScattered Clouds
4:56 AM73.9 °F69.1 °F85 %30.02 in10.0 miCalmScattered Clouds
5:56 AM73.9 °F69.1 °F85 %30.03 in10.0 miCalmMostly Cloudy
6:56 AM75.0 °F70.0 °F84 %30.05 in10.0 miEast (100°)4.6 mph0.01 inMostly Cloudy
7:56 AM75.0 °F71.1 °F87 %30.07 in10.0 miESE (120°)3.5 mphMostly Cloudy
8:56 AM75.9 °F71.1 °F85 %30.09 in10.0 miSE (140°)3.5 mph0.00 inRainLight Rain
9:56 AM75.9 °F73.0 °F91 %30.11 in10.0 miSE (140°)3.5 mph0.02 inRainLight Rain
10:56 AM78.1 °F72.0 °F81 %30.10 in8.0 miESE (120°)4.6 mph0.00 inRainLight Rain
11:06 AM77.0 °F73.4 °F89 %30.11 in2.0 miEast (90°)12.7 mph0.01 inRainLight Rain
11:26 AM75.2 °F73.4 °F94 %30.10 in3.0 miEast (100°)11.5 mph0.05 inRainLight Rain
11:56 AM75.9 °F73.9 °F94 %30.09 in10.0 miEast (80°)12.7 mph0.07 inMostly Cloudy
12:56 PM78.1 °F73.9 °F87 %30.07 in10.0 miEast (80°)12.7 mph0.01 inRainLight Rain
1:56 PM80.1 °F73.9 °F81 %30.05 in10.0 miENE (70°)11.5 mph0.01 inMostly Cloudy
2:56 PM80.1 °F72.0 °F76 %30.04 in10.0 miENE (70°)16.1 mphScattered Clouds
3:56 PM81.0 °F71.1 °F72 %30.04 in10.0 miEast (90°)15.0 mph21.9 mph0.00 inScattered Clouds
4:56 PM81.0 °F70.0 °F69 %30.05 in10.0 miEast (90°)9.2 mphScattered Clouds
5:56 PM80.1 °F69.1 °F69 %30.06 in10.0 miEast (90°)4.6 mph0.01 inScattered Clouds
6:56 PM79.0 °F70.0 °F74 %30.08 in10.0 miESE (110°)5.8 mphScattered Clouds
7:56 PM78.1 °F70.0 °F76 %30.09 in10.0 miSE (130°)3.5 mphScattered Clouds
8:56 PM78.1 °F71.1 °F79 %30.11 in10.0 miESE (110°)4.6 mphScattered Clouds
9:56 PM77.0 °F70.0 °F79 %30.12 in10.0 miSE (130°)3.5 mphScattered Clouds
10:56 PM75.0 °F70.0 °F84 %30.12 in10.0 miEast (90°)6.9 mphScattered Clouds
11:56 PM75.9 °F70.0 °F82 %30.12 in10.0 miCalmPartly Cloudy
Hourly data recorded from TJSJ, located miles away from Patillas, Puerto Rico







STORIES FROM OUR PARTNERS